Year,Month,Day,Hour,Minute,Value (Times are PST for windspeed in km/hr)
2008,02,11,00,00,0.90
2008,02,11,00,01,3.80
2008,02,11,00,02,2.60
2008,02,11,00,03,3.90
2008,02,11,00,04,3.70
2008,02,11,00,05,3.60
2008,02,11,00,06,2.10
2008,02,11,00,07,3.90
2008,02,11,00,08,2.40
2008,02,11,00,09,3.20
2008,02,11,00,10,2.00
2008,02,11,00,11,2.90
2008,02,11,00,12,1.30
2008,02,11,00,13,0.80
2008,02,11,00,14,3.50
2008,02,11,00,15,4.30
2008,02,11,00,16,6.40
2008,02,11,00,17,3.40
2008,02,11,00,18,3.40
2008,02,11,00,19,1.00
2008,02,11,00,20,1.70
2008,02,11,00,21,2.70
2008,02,11,00,22,1.80
2008,02,11,00,23,1.10
2008,02,11,00,24,1.20
2008,02,11,00,25,2.90
2008,02,11,00,26,0.70
2008,02,11,00,27,3.80
2008,02,11,00,28,6.80
2008,02,11,00,29,4.60
2008,02,11,00,30,3.90
2008,02,11,00,31,2.20
2008,02,11,00,32,5.60
2008,02,11,00,33,6.20
2008,02,11,00,34,1.50
2008,02,11,00,35,4.50
2008,02,11,00,36,2.20
2008,02,11,00,37,0.00
2008,02,11,00,38,2.00
2008,02,11,00,39,3.00
2008,02,11,00,40,4.40
2008,02,11,00,41,6.30
2008,02,11,00,42,4.70
2008,02,11,00,43,3.20
2008,02,11,00,44,7.10
2008,02,11,00,45,5.70
2008,02,11,00,46,8.40
2008,02,11,00,47,7.40
2008,02,11,00,48,3.50
2008,02,11,00,49,6.40
2008,02,11,00,50,5.40
2008,02,11,00,51,6.60
2008,02,11,00,52,3.40
2008,02,11,00,53,4.40
2008,02,11,00,54,4.40
2008,02,11,00,55,6.70
2008,02,11,00,56,4.10
2008,02,11,00,57,2.30
2008,02,11,00,58,3.40
2008,02,11,00,59,4.80
2008,02,11,01,00,2.50
2008,02,11,01,01,3.90
2008,02,11,01,02,5.30
2008,02,11,01,03,5.70
2008,02,11,01,04,4.90
2008,02,11,01,05,3.70
2008,02,11,01,06,3.00
2008,02,11,01,07,2.50
2008,02,11,01,08,4.10
2008,02,11,01,09,4.20
2008,02,11,01,10,3.00
2008,02,11,01,11,1.70
2008,02,11,01,12,1.60
2008,02,11,01,13,1.50
2008,02,11,01,14,1.80
2008,02,11,01,15,3.50
2008,02,11,01,16,0.80
2008,02,11,01,17,1.10
2008,02,11,01,18,3.20
2008,02,11,01,19,2.90
2008,02,11,01,20,2.10
2008,02,11,01,21,2.40
2008,02,11,01,22,1.80
2008,02,11,01,23,1.10
2008,02,11,01,24,0.00
2008,02,11,01,25,0.00
2008,02,11,01,26,2.00
2008,02,11,01,27,0.00
2008,02,11,01,28,0.00
2008,02,11,01,29,1.40
2008,02,11,01,30,2.90
2008,02,11,01,31,0.40
2008,02,11,01,32,0.00
2008,02,11,01,33,0.00
2008,02,11,01,34,0.00
2008,02,11,01,35,0.70
2008,02,11,01,36,2.90
2008,02,11,01,37,3.00
2008,02,11,01,38,3.70
2008,02,11,01,39,3.30
2008,02,11,01,40,2.10
2008,02,11,01,41,2.10
2008,02,11,01,42,2.10
2008,02,11,01,43,2.70
2008,02,11,01,44,4.50
2008,02,11,01,45,4.50
2008,02,11,01,46,4.80
2008,02,11,01,47,4.70
2008,02,11,01,48,6.00
2008,02,11,01,49,6.40
2008,02,11,01,50,6.40
2008,02,11,01,51,6.40
2008,02,11,01,52,3.00
2008,02,11,01,53,0.30
2008,02,11,01,54,1.10
2008,02,11,01,55,1.10
2008,02,11,01,56,2.50
2008,02,11,01,57,2.30
2008,02,11,01,58,3.90
2008,02,11,01,59,2.80
2008,02,11,02,00,9.00
2008,02,11,02,01,6.80
2008,02,11,02,02,8.40
2008,02,11,02,03,5.60
2008,02,11,02,04,4.70
2008,02,11,02,05,2.80
2008,02,11,02,06,2.40
2008,02,11,02,07,0.00
2008,02,11,02,08,0.00
2008,02,11,02,09,0.00
2008,02,11,02,10,0.00
2008,02,11,02,11,2.30
2008,02,11,02,12,2.40
2008,02,11,02,13,2.30
2008,02,11,02,14,4.00
2008,02,11,02,15,5.30
2008,02,11,02,16,2.50
2008,02,11,02,17,4.70
2008,02,11,02,18,4.00
2008,02,11,02,19,3.10
2008,02,11,02,20,1.50
2008,02,11,02,21,2.70
2008,02,11,02,22,1.50
2008,02,11,02,23,0.50
2008,02,11,02,24,0.90
2008,02,11,02,25,1.00
2008,02,11,02,26,0.70
2008,02,11,02,27,0.00
2008,02,11,02,28,0.30
2008,02,11,02,29,0.10
2008,02,11,02,30,0.00
2008,02,11,02,31,1.60
2008,02,11,02,32,0.50
2008,02,11,02,33,0.00
2008,02,11,02,34,0.20
2008,02,11,02,35,4.10
2008,02,11,02,36,1.90
2008,02,11,02,37,1.70
2008,02,11,02,38,0.10
2008,02,11,02,39,0.00
2008,02,11,02,40,0.10
2008,02,11,02,41,0.00
2008,02,11,02,42,0.00
2008,02,11,02,43,0.00
2008,02,11,02,44,0.00
2008,02,11,02,45,0.00
2008,02,11,02,46,0.00
2008,02,11,02,47,0.00
2008,02,11,02,48,0.00
2008,02,11,02,49,0.80
2008,02,11,02,50,2.30
2008,02,11,02,51,2.70
2008,02,11,02,52,2.90
2008,02,11,02,53,2.00
2008,02,11,02,54,1.40
2008,02,11,02,55,3.60
2008,02,11,02,56,3.50
2008,02,11,02,57,2.60
2008,02,11,02,58,2.70
2008,02,11,02,59,3.20
2008,02,11,03,00,3.60
2008,02,11,03,01,2.50
2008,02,11,03,02,2.50
2008,02,11,03,03,3.00
2008,02,11,03,04,3.90
2008,02,11,03,05,3.30
2008,02,11,03,06,2.10
2008,02,11,03,07,2.40
2008,02,11,03,08,3.10
2008,02,11,03,09,1.70
2008,02,11,03,10,2.30
2008,02,11,03,11,2.60
2008,02,11,03,12,2.30
2008,02,11,03,13,1.70
2008,02,11,03,14,2.00
2008,02,11,03,15,2.10
2008,02,11,03,16,1.90
2008,02,11,03,17,1.90
2008,02,11,03,18,2.60
2008,02,11,03,19,1.80
2008,02,11,03,20,2.60
2008,02,11,03,21,1.90
2008,02,11,03,22,2.00
2008,02,11,03,23,2.60
2008,02,11,03,24,3.40
2008,02,11,03,25,2.50
2008,02,11,03,26,3.60
2008,02,11,03,27,3.90
2008,02,11,03,28,2.90
2008,02,11,03,29,3.40
2008,02,11,03,30,2.80
2008,02,11,03,31,3.50
2008,02,11,03,32,3.00
2008,02,11,03,33,3.60
2008,02,11,03,34,3.30
2008,02,11,03,35,3.20
2008,02,11,03,36,3.10
2008,02,11,03,37,2.90
2008,02,11,03,38,2.50
2008,02,11,03,39,2.60
2008,02,11,03,40,2.00
2008,02,11,03,41,2.00
2008,02,11,03,42,0.70
2008,02,11,03,43,0.00
2008,02,11,03,44,1.40
2008,02,11,03,45,0.10
2008,02,11,03,46,0.00
2008,02,11,03,47,0.30
2008,02,11,03,48,0.40
2008,02,11,03,49,0.80
2008,02,11,03,50,0.40
2008,02,11,03,51,0.00
2008,02,11,03,52,0.00
2008,02,11,03,53,0.00
2008,02,11,03,54,0.00
2008,02,11,03,55,0.00
2008,02,11,03,56,0.00
2008,02,11,03,57,0.00
2008,02,11,03,58,0.00
2008,02,11,03,59,1.70
2008,02,11,04,00,1.60
2008,02,11,04,01,1.50
2008,02,11,04,02,2.70
2008,02,11,04,03,1.60
2008,02,11,04,04,1.20
2008,02,11,04,05,0.70
2008,02,11,04,06,0.40
2008,02,11,04,07,0.00
2008,02,11,04,08,0.00
2008,02,11,04,09,0.40
2008,02,11,04,10,0.00
2008,02,11,04,11,0.00
2008,02,11,04,12,0.00
2008,02,11,04,13,0.00
2008,02,11,04,14,0.00
2008,02,11,04,15,0.00
2008,02,11,04,16,0.00
2008,02,11,04,17,0.30
2008,02,11,04,18,0.60
2008,02,11,04,19,1.60
2008,02,11,04,20,1.70
2008,02,11,04,21,0.40
2008,02,11,04,22,0.40
2008,02,11,04,23,0.00
2008,02,11,04,24,0.00
2008,02,11,04,25,0.00
2008,02,11,04,26,0.00
2008,02,11,04,27,0.00
2008,02,11,04,28,0.00
2008,02,11,04,29,0.00
2008,02,11,04,30,0.00
2008,02,11,04,31,0.00
2008,02,11,04,32,0.00
2008,02,11,04,33,0.00
2008,02,11,04,34,0.00
2008,02,11,04,35,0.00
2008,02,11,04,36,0.00
2008,02,11,04,37,0.00
2008,02,11,04,38,0.00
2008,02,11,04,39,0.00
2008,02,11,04,40,0.10
2008,02,11,04,41,0.40
2008,02,11,04,42,0.00
2008,02,11,04,43,0.00
2008,02,11,04,44,0.00
2008,02,11,04,45,0.00
2008,02,11,04,46,0.00
2008,02,11,04,47,0.00
2008,02,11,04,48,0.00
2008,02,11,04,49,0.00
2008,02,11,04,50,0.90
2008,02,11,04,51,0.70
2008,02,11,04,52,0.00
2008,02,11,04,53,0.40
2008,02,11,04,54,0.00
2008,02,11,04,55,0.00
2008,02,11,04,56,0.00
2008,02,11,04,57,0.00
2008,02,11,04,58,0.00
2008,02,11,04,59,0.00
2008,02,11,05,00,0.00
2008,02,11,05,01,0.00
2008,02,11,05,02,0.00
2008,02,11,05,03,0.00
2008,02,11,05,04,0.00
2008,02,11,05,05,0.00
2008,02,11,05,06,0.00
2008,02,11,05,07,0.00
2008,02,11,05,08,0.00
2008,02,11,05,09,0.00
2008,02,11,05,10,0.00
2008,02,11,05,11,0.10
2008,02,11,05,12,2.70
2008,02,11,05,13,2.70
2008,02,11,05,14,1.60
2008,02,11,05,15,0.60
2008,02,11,05,16,0.00
2008,02,11,05,17,0.00
2008,02,11,05,18,0.00
2008,02,11,05,19,0.20
2008,02,11,05,20,0.00
2008,02,11,05,21,0.10
2008,02,11,05,22,0.00
2008,02,11,05,23,0.00
2008,02,11,05,24,0.00
2008,02,11,05,25,0.70
2008,02,11,05,26,0.00
2008,02,11,05,27,0.00
2008,02,11,05,28,0.00
2008,02,11,05,29,0.00
2008,02,11,05,30,0.10
2008,02,11,05,31,0.00
2008,02,11,05,32,0.00
2008,02,11,05,33,0.50
2008,02,11,05,34,0.70
2008,02,11,05,35,0.80
2008,02,11,05,36,3.80
2008,02,11,05,37,2.50
2008,02,11,05,38,1.40
2008,02,11,05,39,1.50
2008,02,11,05,40,0.20
2008,02,11,05,41,2.30
2008,02,11,05,42,1.00
2008,02,11,05,43,1.50
2008,02,11,05,44,0.60
2008,02,11,05,45,1.40
2008,02,11,05,46,5.20
2008,02,11,05,47,4.80
2008,02,11,05,48,3.70
2008,02,11,05,49,3.10
2008,02,11,05,50,3.30
2008,02,11,05,51,6.60
2008,02,11,05,52,4.50
2008,02,11,05,53,6.20
2008,02,11,05,54,5.50
2008,02,11,05,55,5.50
2008,02,11,05,56,5.20
2008,02,11,05,57,5.30
2008,02,11,05,58,3.10
2008,02,11,05,59,2.30
2008,02,11,06,00,3.90
2008,02,11,06,01,7.10
2008,02,11,06,02,7.50
2008,02,11,06,03,4.30
2008,02,11,06,04,5.60
2008,02,11,06,05,5.60
2008,02,11,06,06,8.70
2008,02,11,06,07,6.60
2008,02,11,06,08,6.10
2008,02,11,06,09,4.60
2008,02,11,06,10,13.20
2008,02,11,06,11,10.70
2008,02,11,06,12,10.10
2008,02,11,06,13,12.20
2008,02,11,06,14,11.80
2008,02,11,06,15,10.70
2008,02,11,06,16,12.00
2008,02,11,06,17,9.20
2008,02,11,06,18,9.70
2008,02,11,06,19,8.60
2008,02,11,06,20,11.60
2008,02,11,06,21,8.30
2008,02,11,06,22,12.00
2008,02,11,06,23,7.00
2008,02,11,06,24,5.10
2008,02,11,06,25,6.30
2008,02,11,06,26,7.30
2008,02,11,06,27,9.40
2008,02,11,06,28,6.90
2008,02,11,06,29,6.70
2008,02,11,06,30,8.90
2008,02,11,06,31,8.90
2008,02,11,06,32,7.20
2008,02,11,06,33,15.50
2008,02,11,06,34,10.90
2008,02,11,06,35,7.20
2008,02,11,06,36,9.60
2008,02,11,06,37,8.80
2008,02,11,06,38,7.00
2008,02,11,06,39,11.00
2008,02,11,06,40,7.00
2008,02,11,06,41,8.10
2008,02,11,06,42,9.10
2008,02,11,06,43,6.80
2008,02,11,06,44,6.40
2008,02,11,06,45,6.20
2008,02,11,06,46,5.50
2008,02,11,06,47,7.20
2008,02,11,06,48,11.70
2008,02,11,06,49,7.80
2008,02,11,06,50,5.80
2008,02,11,06,51,8.00
2008,02,11,06,52,7.30
2008,02,11,06,53,11.10
2008,02,11,06,54,8.40
2008,02,11,06,55,8.80
2008,02,11,06,56,7.20
2008,02,11,06,57,4.50
2008,02,11,06,58,4.70
2008,02,11,06,59,7.50
2008,02,11,07,00,8.00
2008,02,11,07,01,7.30
2008,02,11,07,02,4.60
2008,02,11,07,03,4.50
2008,02,11,07,04,4.00
2008,02,11,07,05,7.90
2008,02,11,07,06,6.10
2008,02,11,07,07,8.40
2008,02,11,07,08,8.10
2008,02,11,07,09,5.10
2008,02,11,07,10,5.90
2008,02,11,07,11,6.40
2008,02,11,07,12,6.50
2008,02,11,07,13,7.40
2008,02,11,07,14,4.30
2008,02,11,07,15,5.00
2008,02,11,07,16,3.40
2008,02,11,07,17,3.10
2008,02,11,07,18,3.40
2008,02,11,07,19,5.00
2008,02,11,07,20,4.70
2008,02,11,07,21,3.90
2008,02,11,07,22,2.50
2008,02,11,07,23,3.20
2008,02,11,07,24,5.10
2008,02,11,07,25,4.40
2008,02,11,07,26,2.60
2008,02,11,07,27,3.80
2008,02,11,07,28,1.30
2008,02,11,07,29,0.10
2008,02,11,07,30,0.10
2008,02,11,07,31,0.00
2008,02,11,07,32,0.70
2008,02,11,07,33,1.30
2008,02,11,07,34,5.60
2008,02,11,07,35,4.50
2008,02,11,07,36,3.50
2008,02,11,07,37,4.20
2008,02,11,07,38,4.60
2008,02,11,07,39,3.00
2008,02,11,07,40,1.50
2008,02,11,07,41,1.10
2008,02,11,07,42,0.60
2008,02,11,07,43,2.60
2008,02,11,07,44,3.20
2008,02,11,07,45,2.40
2008,02,11,07,46,3.90
2008,02,11,07,47,2.10
2008,02,11,07,48,0.90
2008,02,11,07,49,3.00
2008,02,11,07,50,2.20
2008,02,11,07,51,0.20
2008,02,11,07,52,0.90
2008,02,11,07,53,0.00
2008,02,11,07,54,0.40
2008,02,11,07,55,1.70
2008,02,11,07,56,0.50
2008,02,11,07,57,0.20
2008,02,11,07,58,1.20
2008,02,11,07,59,0.50
2008,02,11,08,00,1.20
2008,02,11,08,01,0.70
2008,02,11,08,02,1.40
2008,02,11,08,03,1.40
2008,02,11,08,04,2.50
2008,02,11,08,05,1.60
2008,02,11,08,06,1.90
2008,02,11,08,07,1.00
2008,02,11,08,08,1.90
2008,02,11,08,09,1.20
2008,02,11,08,10,0.00
2008,02,11,08,11,0.00
2008,02,11,08,12,0.00
2008,02,11,08,13,0.00
2008,02,11,08,14,0.40
2008,02,11,08,15,0.00
2008,02,11,08,16,0.80
2008,02,11,08,17,2.90
2008,02,11,08,18,1.40
2008,02,11,08,19,1.40
2008,02,11,08,20,0.80
2008,02,11,08,21,0.00
2008,02,11,08,22,0.00
2008,02,11,08,23,0.00
2008,02,11,08,24,0.00
2008,02,11,08,25,0.00
2008,02,11,08,26,0.00
2008,02,11,08,27,0.10
2008,02,11,08,28,0.00
2008,02,11,08,29,0.00
2008,02,11,08,30,0.00
2008,02,11,08,31,0.00
2008,02,11,08,32,0.30
2008,02,11,08,33,0.10
2008,02,11,08,34,1.90
2008,02,11,08,35,2.30
2008,02,11,08,36,1.50
2008,02,11,08,37,2.10
2008,02,11,08,38,1.90
2008,02,11,08,39,3.00
2008,02,11,08,40,3.50
2008,02,11,08,41,3.90
2008,02,11,08,42,4.10
2008,02,11,08,43,3.90
2008,02,11,08,44,1.30
2008,02,11,08,45,0.00
2008,02,11,08,46,1.10
2008,02,11,08,47,3.50
2008,02,11,08,48,0.40
2008,02,11,08,49,0.60
2008,02,11,08,50,1.50
2008,02,11,08,51,0.40
2008,02,11,08,52,0.40
2008,02,11,08,53,2.00
2008,02,11,08,54,1.20
2008,02,11,08,55,0.20
2008,02,11,08,56,0.30
2008,02,11,08,57,0.70
2008,02,11,08,58,2.90
2008,02,11,08,59,3.00
2008,02,11,09,00,3.20
2008,02,11,09,01,1.70
2008,02,11,09,02,2.50
2008,02,11,09,03,1.10
2008,02,11,09,04,1.80
2008,02,11,09,05,2.00
2008,02,11,09,06,2.60
2008,02,11,09,07,2.60
2008,02,11,09,08,3.40
2008,02,11,09,09,2.30
2008,02,11,09,10,1.30
2008,02,11,09,11,2.20
2008,02,11,09,12,1.60
2008,02,11,09,13,1.60
2008,02,11,09,14,1.60
2008,02,11,09,16,0.00
2008,02,11,09,17,0.00
2008,02,11,09,18,0.00
2008,02,11,09,19,0.00
2008,02,11,09,20,0.70
2008,02,11,09,21,0.70
2008,02,11,09,22,0.00
2008,02,11,09,23,0.00
2008,02,11,09,24,0.00
2008,02,11,09,25,0.00
2008,02,11,09,26,2.00
2008,02,11,09,27,2.00
2008,02,11,09,28,0.80
2008,02,11,09,29,1.20
2008,02,11,09,30,3.60
2008,02,11,09,31,3.20
2008,02,11,09,32,3.20
2008,02,11,09,33,4.30
2008,02,11,09,34,3.80
2008,02,11,09,35,1.80
2008,02,11,09,36,1.80
2008,02,11,09,37,1.40
2008,02,11,09,38,2.80
2008,02,11,09,39,4.30
2008,02,11,09,40,4.10
2008,02,11,09,41,3.00
2008,02,11,09,42,4.10
2008,02,11,09,43,5.50
2008,02,11,09,44,3.30
2008,02,11,09,45,3.10
2008,02,11,09,46,4.10
2008,02,11,09,47,4.80
2008,02,11,09,48,4.80
2008,02,11,09,49,2.30
2008,02,11,09,50,3.80
2008,02,11,09,51,5.60
2008,02,11,09,52,4.80
2008,02,11,09,53,4.60
2008,02,11,09,54,3.30
2008,02,11,09,55,3.70
2008,02,11,09,56,3.40
2008,02,11,09,57,3.70
2008,02,11,09,58,3.80
2008,02,11,09,59,3.20
2008,02,11,10,00,3.80
2008,02,11,10,01,4.60
2008,02,11,10,02,4.50
2008,02,11,10,03,3.40
2008,02,11,10,04,2.80
2008,02,11,10,05,3.00
2008,02,11,10,06,3.80
2008,02,11,10,07,6.40
2008,02,11,10,08,6.40
2008,02,11,10,09,3.90
2008,02,11,10,10,4.70
2008,02,11,10,11,6.40
2008,02,11,10,12,6.20
2008,02,11,10,13,5.00
2008,02,11,10,14,1.70
2008,02,11,10,15,4.80
2008,02,11,10,16,3.80
2008,02,11,10,17,5.10
2008,02,11,10,18,5.30
2008,02,11,10,19,2.50
2008,02,11,10,20,1.50
2008,02,11,10,21,5.30
2008,02,11,10,22,2.70
2008,02,11,10,23,8.40
2008,02,11,10,24,11.40
2008,02,11,10,25,7.40
2008,02,11,10,26,6.30
2008,02,11,10,27,9.30
2008,02,11,10,28,9.20
2008,02,11,10,29,6.60
2008,02,11,10,30,8.90
2008,02,11,10,31,3.90
2008,02,11,10,32,2.90
2008,02,11,10,33,4.90
2008,02,11,10,34,4.80
2008,02,11,10,35,6.10
2008,02,11,10,36,7.80
2008,02,11,10,37,6.70
2008,02,11,10,38,7.50
2008,02,11,10,39,4.80
2008,02,11,10,40,7.00
2008,02,11,10,41,9.30
2008,02,11,10,42,9.40
2008,02,11,10,43,9.60
2008,02,11,10,44,7.70
2008,02,11,10,45,11.80
2008,02,11,10,46,11.00
2008,02,11,10,47,12.60
2008,02,11,10,48,12.70
2008,02,11,10,49,10.20
2008,02,11,10,50,10.80
2008,02,11,10,51,7.50
2008,02,11,10,52,8.10
2008,02,11,10,53,8.30
2008,02,11,10,54,12.70
2008,02,11,10,55,7.70
2008,02,11,10,56,9.30
2008,02,11,10,57,7.80
2008,02,11,10,58,8.00
2008,02,11,10,59,8.60
2008,02,11,11,00,9.80
2008,02,11,11,01,10.20
2008,02,11,11,02,6.60
2008,02,11,11,03,8.00
2008,02,11,11,04,8.00
2008,02,11,11,05,7.80
2008,02,11,11,06,5.10
2008,02,11,11,07,6.40
2008,02,11,11,08,6.80
2008,02,11,11,09,6.90
2008,02,11,11,10,3.10
2008,02,11,11,11,3.30
2008,02,11,11,12,3.60
2008,02,11,11,13,2.90
2008,02,11,11,14,6.10
2008,02,11,11,15,5.60
2008,02,11,11,16,6.20
2008,02,11,11,17,5.50
2008,02,11,11,18,5.80
2008,02,11,11,19,6.40
2008,02,11,11,20,6.00
2008,02,11,11,21,3.70
2008,02,11,11,22,4.90
2008,02,11,11,23,3.70
2008,02,11,11,24,5.20
2008,02,11,11,25,1.90
2008,02,11,11,26,1.10
2008,02,11,11,27,3.80
2008,02,11,11,28,5.20
2008,02,11,11,29,4.70
2008,02,11,11,30,5.40
2008,02,11,11,31,4.50
2008,02,11,11,32,2.60
2008,02,11,11,33,2.70
2008,02,11,11,34,4.30
2008,02,11,11,35,5.80
2008,02,11,11,36,6.60
2008,02,11,11,37,5.60
2008,02,11,11,38,4.60
2008,02,11,11,39,6.10
2008,02,11,11,40,6.60
2008,02,11,11,41,7.00
2008,02,11,11,42,6.10
2008,02,11,11,43,5.90
2008,02,11,11,44,7.10
2008,02,11,11,45,6.30
2008,02,11,11,46,5.00
2008,02,11,11,47,3.10
2008,02,11,11,48,3.70
2008,02,11,11,49,3.70
2008,02,11,11,50,3.50
2008,02,11,11,51,3.30
2008,02,11,11,52,4.40
2008,02,11,11,53,3.60
2008,02,11,11,54,4.60
2008,02,11,11,55,3.40
2008,02,11,11,56,3.20
2008,02,11,11,57,3.00
2008,02,11,11,58,1.00
2008,02,11,11,59,0.80
2008,02,11,12,00,3.80
2008,02,11,12,01,3.20
2008,02,11,12,02,0.00
2008,02,11,12,03,1.80
2008,02,11,12,04,3.70
2008,02,11,12,05,0.10
2008,02,11,12,06,0.00
2008,02,11,12,07,0.00
2008,02,11,12,08,0.00
2008,02,11,12,09,3.40
2008,02,11,12,10,0.20
2008,02,11,12,11,0.10
2008,02,11,12,12,0.00
2008,02,11,12,13,0.00
2008,02,11,12,14,0.00
2008,02,11,12,15,0.10
2008,02,11,12,16,0.00
2008,02,11,12,17,0.60
2008,02,11,12,18,0.70
2008,02,11,12,19,2.50
2008,02,11,12,20,0.00
2008,02,11,12,21,1.50
2008,02,11,12,22,2.80
2008,02,11,12,23,0.70
2008,02,11,12,24,0.00
2008,02,11,12,25,0.00
2008,02,11,12,26,1.50
2008,02,11,12,27,0.40
2008,02,11,12,28,0.00
2008,02,11,12,29,1.00
2008,02,11,12,30,0.40
2008,02,11,12,31,2.00
2008,02,11,12,32,2.90
2008,02,11,12,33,3.50
2008,02,11,12,34,3.70
2008,02,11,12,35,3.20
2008,02,11,12,36,2.40
2008,02,11,12,37,2.20
2008,02,11,12,38,3.90
2008,02,11,12,39,4.80
2008,02,11,12,40,4.90
2008,02,11,12,41,5.20
2008,02,11,12,42,4.20
2008,02,11,12,43,4.00
2008,02,11,12,44,4.00
2008,02,11,12,45,6.00
2008,02,11,12,46,4.20
2008,02,11,12,47,5.90
2008,02,11,12,48,6.60
2008,02,11,12,49,4.00
2008,02,11,12,50,3.30
2008,02,11,12,51,3.20
2008,02,11,12,52,4.70
2008,02,11,12,53,4.30
2008,02,11,12,54,4.40
2008,02,11,12,55,4.40
2008,02,11,12,56,3.00
2008,02,11,12,57,3.00
2008,02,11,12,58,2.80
2008,02,11,12,59,3.70
2008,02,11,13,00,2.80
2008,02,11,13,01,4.70
2008,02,11,13,02,4.50
2008,02,11,13,03,3.70
2008,02,11,13,04,3.70
2008,02,11,13,05,4.30
2008,02,11,13,06,3.70
2008,02,11,13,07,1.90
2008,02,11,13,08,1.60
2008,02,11,13,09,2.90
2008,02,11,13,10,4.10
2008,02,11,13,11,6.10
2008,02,11,13,12,7.60
2008,02,11,13,13,8.50
2008,02,11,13,14,7.40
2008,02,11,13,15,8.90
2008,02,11,13,16,10.10
2008,02,11,13,17,7.60
2008,02,11,13,18,6.80
2008,02,11,13,19,8.80
2008,02,11,13,20,8.90
2008,02,11,13,21,9.60
2008,02,11,13,22,5.10
2008,02,11,13,23,7.30
2008,02,11,13,24,6.80
2008,02,11,13,25,6.90
2008,02,11,13,26,6.20
2008,02,11,13,27,7.70
2008,02,11,13,28,8.60
2008,02,11,13,29,11.00
2008,02,11,13,30,9.60
2008,02,11,13,31,11.00
2008,02,11,13,32,8.60
2008,02,11,13,33,6.70
2008,02,11,13,34,9.60
2008,02,11,13,35,12.40
2008,02,11,13,36,10.40
2008,02,11,13,37,9.70
2008,02,11,13,38,11.00
2008,02,11,13,39,11.00
2008,02,11,13,40,11.10
2008,02,11,13,41,8.10
2008,02,11,13,42,6.70
2008,02,11,13,43,7.20
2008,02,11,13,44,8.20
2008,02,11,13,45,4.90
2008,02,11,13,46,11.10
2008,02,11,13,47,7.10
2008,02,11,13,48,6.80
2008,02,11,13,49,5.90
2008,02,11,13,50,9.30
2008,02,11,13,51,6.70
2008,02,11,13,52,6.50
2008,02,11,13,53,4.10
2008,02,11,13,54,4.50
2008,02,11,13,55,5.70
2008,02,11,13,56,5.40
2008,02,11,13,57,7.00
2008,02,11,13,58,7.90
2008,02,11,13,59,4.30
2008,02,11,14,00,6.40
2008,02,11,14,01,6.70
2008,02,11,14,02,5.60
2008,02,11,14,03,4.80
2008,02,11,14,04,5.60
2008,02,11,14,05,6.30
2008,02,11,14,06,5.40
2008,02,11,14,07,4.60
2008,02,11,14,08,4.30
2008,02,11,14,09,4.70
2008,02,11,14,10,7.70
2008,02,11,14,11,3.40
2008,02,11,14,12,4.30
2008,02,11,14,13,7.60
2008,02,11,14,14,5.40
2008,02,11,14,15,5.30
2008,02,11,14,16,3.60
2008,02,11,14,17,4.10
2008,02,11,14,18,5.00
2008,02,11,14,19,5.90
2008,02,11,14,20,5.60
2008,02,11,14,21,7.90
2008,02,11,14,22,7.70
2008,02,11,14,23,6.20
2008,02,11,14,24,5.30
2008,02,11,14,25,6.10
2008,02,11,14,26,4.60
2008,02,11,14,27,5.90
2008,02,11,14,28,4.80
2008,02,11,14,29,6.10
2008,02,11,14,30,3.30
2008,02,11,14,31,2.50
2008,02,11,14,32,5.90
2008,02,11,14,33,5.00
2008,02,11,14,34,4.20
2008,02,11,14,35,5.30
2008,02,11,14,36,7.50
2008,02,11,14,37,7.50
2008,02,11,14,38,5.80
2008,02,11,14,39,8.30
2008,02,11,14,40,6.00
2008,02,11,14,41,3.60
2008,02,11,14,42,4.40
2008,02,11,14,43,4.90
2008,02,11,14,44,4.70
2008,02,11,14,45,4.60
2008,02,11,14,46,5.10
2008,02,11,14,47,4.10
2008,02,11,14,48,6.40
2008,02,11,14,49,4.00
2008,02,11,14,50,7.70
2008,02,11,14,51,6.30
2008,02,11,14,52,5.70
2008,02,11,14,53,6.50
2008,02,11,14,54,4.20
2008,02,11,14,55,4.10
2008,02,11,14,56,4.90
2008,02,11,14,57,3.80
2008,02,11,14,58,4.10
2008,02,11,14,59,5.30
2008,02,11,15,00,5.70
2008,02,11,15,01,3.90
2008,02,11,15,02,4.60
2008,02,11,15,03,1.80
2008,02,11,15,04,0.40
2008,02,11,15,05,0.10
2008,02,11,15,06,1.00
2008,02,11,15,07,1.10
2008,02,11,15,08,0.00
2008,02,11,15,09,2.30
2008,02,11,15,10,3.20
2008,02,11,15,11,4.40
2008,02,11,15,12,4.80
2008,02,11,15,13,3.10
2008,02,11,15,14,0.70
2008,02,11,15,15,2.10
2008,02,11,15,16,1.50
2008,02,11,15,17,0.90
2008,02,11,15,18,0.10
2008,02,11,15,19,0.00
2008,02,11,15,20,0.00
2008,02,11,15,21,0.00
2008,02,11,15,22,0.00
2008,02,11,15,23,0.70
2008,02,11,15,24,1.10
2008,02,11,15,25,0.00
2008,02,11,15,26,0.00
2008,02,11,15,27,0.00
2008,02,11,15,28,0.00
2008,02,11,15,29,1.00
2008,02,11,15,30,3.80
2008,02,11,15,31,2.80
2008,02,11,15,32,4.40
2008,02,11,15,33,5.20
2008,02,11,15,34,3.10
2008,02,11,15,35,2.70
2008,02,11,15,36,3.20
2008,02,11,15,37,4.20
2008,02,11,15,38,3.50
2008,02,11,15,39,7.20
2008,02,11,15,40,4.40
2008,02,11,15,41,3.80
2008,02,11,15,42,4.50
2008,02,11,15,43,6.20
2008,02,11,15,44,6.00
2008,02,11,15,45,7.60
2008,02,11,15,46,6.20
2008,02,11,15,47,5.20
2008,02,11,15,48,2.50
2008,02,11,15,49,1.30
2008,02,11,15,50,0.70
2008,02,11,15,51,3.80
2008,02,11,15,52,5.70
2008,02,11,15,53,4.00
2008,02,11,15,54,2.90
2008,02,11,15,55,0.40
2008,02,11,15,56,1.30
2008,02,11,15,57,0.30
2008,02,11,15,58,1.30
2008,02,11,15,59,2.90
2008,02,11,16,00,3.70
2008,02,11,16,01,4.90
2008,02,11,16,02,4.70
2008,02,11,16,03,4.80
2008,02,11,16,04,1.20
2008,02,11,16,05,0.60
2008,02,11,16,06,3.40
2008,02,11,16,07,4.40
2008,02,11,16,08,2.90
2008,02,11,16,09,2.20
2008,02,11,16,10,0.50
2008,02,11,16,11,2.30
2008,02,11,16,12,2.30
2008,02,11,16,13,0.30
2008,02,11,16,14,0.00
2008,02,11,16,15,0.00
2008,02,11,16,16,0.40
2008,02,11,16,17,0.40
2008,02,11,16,18,0.00
2008,02,11,16,19,0.00
2008,02,11,16,20,0.00
2008,02,11,16,21,0.00
2008,02,11,16,22,1.60
2008,02,11,16,23,3.20
2008,02,11,16,24,0.40
2008,02,11,16,25,0.00
2008,02,11,16,26,0.00
2008,02,11,16,27,0.00
2008,02,11,16,28,0.00
2008,02,11,16,29,0.00
2008,02,11,16,30,0.00
2008,02,11,16,31,0.00
2008,02,11,16,32,0.00
2008,02,11,16,33,0.00
2008,02,11,16,34,0.00
2008,02,11,16,35,0.00
2008,02,11,16,36,0.60
2008,02,11,16,37,0.00
2008,02,11,16,38,0.00
2008,02,11,16,39,0.00
2008,02,11,16,40,0.60
2008,02,11,16,41,0.00
2008,02,11,16,42,0.00
2008,02,11,16,43,0.00
2008,02,11,16,44,0.00
2008,02,11,16,45,0.00
2008,02,11,16,46,0.00
2008,02,11,16,47,0.00
2008,02,11,16,48,0.00
2008,02,11,16,49,0.60
2008,02,11,16,50,2.60
2008,02,11,16,51,1.90
2008,02,11,16,52,2.20
2008,02,11,16,53,1.40
2008,02,11,16,54,0.00
2008,02,11,16,55,0.00
2008,02,11,16,56,0.00
2008,02,11,16,57,0.20
2008,02,11,16,58,0.70
2008,02,11,16,59,3.70
2008,02,11,17,00,0.90
2008,02,11,17,01,0.00
2008,02,11,17,02,0.50
2008,02,11,17,03,0.20
2008,02,11,17,04,0.00
2008,02,11,17,05,0.00
2008,02,11,17,06,1.60
2008,02,11,17,07,2.00
2008,02,11,17,08,1.70
2008,02,11,17,09,0.30
2008,02,11,17,10,0.00
2008,02,11,17,11,0.00
2008,02,11,17,12,0.00
2008,02,11,17,13,1.10
2008,02,11,17,14,0.00
2008,02,11,17,15,0.00
2008,02,11,17,16,0.80
2008,02,11,17,17,2.60
2008,02,11,17,18,2.30
2008,02,11,17,19,2.00
2008,02,11,17,20,0.40
2008,02,11,17,21,2.30
2008,02,11,17,22,2.10
2008,02,11,17,23,2.40
2008,02,11,17,24,2.10
2008,02,11,17,25,3.10
2008,02,11,17,26,1.20
2008,02,11,17,27,2.60
2008,02,11,17,28,2.30
2008,02,11,17,29,2.60
2008,02,11,17,30,2.50
2008,02,11,17,31,5.30
2008,02,11,17,32,3.00
2008,02,11,17,33,2.80
2008,02,11,17,34,1.10
2008,02,11,17,35,0.70
2008,02,11,17,36,3.60
2008,02,11,17,37,2.00
2008,02,11,17,38,1.50
2008,02,11,17,39,2.60
2008,02,11,17,40,1.40
2008,02,11,17,41,2.50
2008,02,11,17,42,4.00
2008,02,11,17,43,4.80
2008,02,11,17,44,4.30
2008,02,11,17,45,4.30
2008,02,11,17,46,4.00
2008,02,11,17,47,2.10
2008,02,11,17,48,1.50
2008,02,11,17,49,2.00
2008,02,11,17,50,3.70
2008,02,11,17,51,4.50
2008,02,11,17,52,4.60
2008,02,11,17,53,0.80
2008,02,11,17,54,0.70
2008,02,11,17,55,2.20
2008,02,11,17,56,0.10
2008,02,11,17,57,0.00
2008,02,11,17,58,1.20
2008,02,11,17,59,2.50
2008,02,11,18,00,0.60
2008,02,11,18,01,1.70
2008,02,11,18,02,2.50
2008,02,11,18,03,2.90
2008,02,11,18,04,2.80
2008,02,11,18,05,3.40
2008,02,11,18,06,3.20